Regional Weather Roundup
Issued by NWS

Home | Current Version | Previous Version | Text Only | Print | Product List | Glossary Off
Versions: 1 2 3 4 5 6 7 8 9 10 11 12 13 14 15 16 17 18 19 20 21 22 23 24 25 26 27 28 29 30 31 32 33 34 35 36 37 38 39 40 41 42 43 44 45 46 47 48 49 50

000
ASUS44 KMEG 272210
RWRTN
TENNESSEE HOURLY STATE WEATHER ROUNDUP
NATIONAL WEATHER SERVICE MEMPHIS TN
500 PM CDT WED AUG 27 2014

TNZ002-004-019-021-049-052-054-088>092-272300-
WEST TENNESSEE

CITY           SKY/WX    TMP DP  RH WIND       PRES   REMARKS
MEMPHIS INTL   MOSUNNY   92  63  38 SE8       30.03F HX  93
NWS MEMPHIS      N/A     91 N/A N/A MISG        N/A
JACKSON        SUNNY     89  69  51 SW3       30.04F HX  93
DYERSBURG      MOSUNNY   90  66  45 SE6       30.04F HX  92
UNION CITY     SUNNY     91  73  55 SW3       30.02F HX 100
PARIS          MOSUNNY   81  72  74 W6        30.05F
HUNTINGDON     SUNNY     89  70  53 CALM      30.03F HX  94
LEXINGTON      SUNNY     91  68  46 CALM      30.03F HX  95
SAVANNAH       MOSUNNY   91  68  46 CALM      30.04F HX  95
$$

TNZ008-025-027-028-033-062-065-066-272300-
NORTH MIDDLE TENNESSEE

CITY           SKY/WX    TMP DP  RH WIND       PRES   REMARKS
NASHVILLE      MOSUNNY   91  69  48 SE7       30.04F HX  96
DICKSON        MOSUNNY   88  72  58 CALM      30.05F HX  94
PORTLAND       SUNNY     88  70  55 E5        30.05F HX  92
CLARKSVILLE    MOSUNNY   88  72  58 S3        30.03F HX  94
LEBANON        MOSUNNY   88  68  51 VRB5      30.03F HX  91
SMYRNA         MOSUNNY   92  70  48 E7        30.04F HX  97
MURFREESBORO   SUNNY     89  67  48 E8        30.04F HX  92
COOKEVILLE     MOSUNNY   88  68  51 CALM      30.06F HX  91
LIVINGSTON     MOSUNNY   83  68  60 NE6       30.09
GALLATIN       SUNNY     91  72  53 E3        30.05F HX  98
CROSSVILLE     SUNNY     85  59  41 N6        30.11F
$$

TNZ061-075-076-078-094-096-097-272300-
SOUTH MIDDLE TENNESSEE

CITY           SKY/WX    TMP DP  RH WIND       PRES   REMARKS
LEWISBURG      SUNNY     90  67  46 NE6       30.03F HX  93
FAYETTEVILLE   MOSUNNY   88  64  45 CALM      30.05S
TULLAHOMA      MOSUNNY   88  63  42 NE6       30.06F
WINCHESTER     SUNNY     88  64  45 N6        30.05F
MCMINNVILLE    SUNNY     88  70  55 NE5       30.07S HX  92
COLUMBIA       PTSUNNY   90  73  58 VRB3      30.03S HX  98
SHELBYVILLE    SUNNY     90  66  45 NE9       30.05S HX  92
$$

TNZ017-018-042-046-047-272300-
NORTHEAST TENNESSEE

CITY           SKY/WX    TMP DP  RH WIND       PRES   REMARKS
TRI CITIES     MOSUNNY   85  57  38 N3        30.08S
ELIZABETHTON   CLEAR     82  55  39 CALM      30.08S
$$

TNZ012-013-036-069-073-074-272300-
CENTRAL EAST TENNESSEE

CITY           SKY/WX    TMP DP  RH WIND       PRES   REMARKS
KNOXVILLE      PTSUNNY   86  62  44 E7        30.04
OAK RIDGE      SUNNY     88  58  36 VRB3      30.07F
GATLINBURG     CLEAR     88  61  40 N5        30.05F
MORRISTOWN     CLEAR     84  64  51 NW6       30.08F
$$

TNZ083-085-099-272300-
SOUTHEAST TENNESSEE

CITY           SKY/WX    TMP DP  RH WIND       PRES   REMARKS
CHATTANOOGA    MOSUNNY   90  53  28 NE8       30.03F
$$

SKY/WX REPORTED AS FAIR MEANS FEW OR NO CLOUDS BELOW
12 THOUSAND FEET.




USA.gov is the U.S. government's official web portal to all federal, state and local government web resources and services.